カタログに戻る

STARLINK-6233

運用中通信VLEO
NORAD 57229·PAYLOAD·🇺🇸 United States

打ち上げ Jul 7, 2023 から Vandenberg Space Force Base

Loading…

次のパス (今後24時間)

TLE

最新Source: CelesTrak SupGP

元期: Sep 14, 2026, 20:47 UTC

1 57229C 23094M   26257.86645833  .00057677  00000+0  20879-2 0  2574
2 57229  43.0049  42.6237 0001917 277.9593 111.6141 15.27566697    11

AllMySatでSTARLINK-6233をリアルタイム追跡

Download on the App Store